SWR035 DTTA-LSZH

Flight info

Callsign SWR035
Flight time N/A
Altitude 40000
Route TOBIB3C TOBIB UA725 TANIT UM733 OSMAR DCT LEDRO DCT KOLUS DCT MADKA DCT RATAP/N0420F180 P980 MEGER DCT VOG DCT CANNE Z651 KELIP KELIP3G
Aircraft B777/H-VGDW/C

Departure

Time 2026-04-28 20:33
Airport Tunis Carthage International Airport (DTTA)

Arrival

Time N/A
Airport Zürich Airport (LSZH)
Time Latitude Longitude Altitude Speed Heading
2026-04-28 20:02 36.84523 10.21974 16 ft 0 kts 322°
2026-04-28 20:26 36.84478 10.21996 35 ft 16 kts 349°
2026-04-28 20:26 36.84401 10.21992 34 ft 0 kts 13°
2026-04-28 20:27 36.84406 10.21993 33 ft 2 kts 13°
2026-04-28 20:28 36.84464 10.22027 34 ft 15 kts 38°
2026-04-28 20:28 36.84501 10.22139 35 ft 20 kts 95°
2026-04-28 20:28 36.84555 10.22278 35 ft 16 kts 15°
2026-04-28 20:28 36.84730 10.22315 35 ft 35 kts
2026-04-28 20:29 36.84888 10.22353 35 ft 23 kts 13°
2026-04-28 20:29 36.85023 10.22315 36 ft 19 kts 306°
2026-04-28 20:29 36.85073 10.22157 35 ft 21 kts 290°
2026-04-28 20:29 36.85128 10.21973 35 ft 24 kts 290°
2026-04-28 20:30 36.85194 10.21795 35 ft 22 kts 296°
2026-04-28 20:30 36.85294 10.21724 35 ft 0 kts 20°
2026-04-28 20:30 36.85299 10.21725 35 ft 1 kts 20°
2026-04-28 20:30 36.85315 10.21733 35 ft 5 kts 20°
2026-04-28 20:31 36.85375 10.21764 36 ft 14 kts 33°
2026-04-28 20:31 36.85388 10.21886 37 ft 14 kts 111°
2026-04-28 20:31 36.85380 10.21909 37 ft 0 kts 113°
2026-04-28 20:31 36.85376 10.21919 37 ft 0 kts 113°
2026-04-28 20:32 36.85367 10.21948 37 ft 15 kts 113°
2026-04-28 20:32 36.85210 10.22413 40 ft 113 kts 111°
2026-04-28 20:32 36.84755 10.23754 63 ft 215 kts 114°
2026-04-28 20:33 36.84121 10.25566 1328 ft 230 kts 117°
2026-04-28 20:33 36.83465 10.27364 3132 ft 227 kts 117°
2026-04-28 20:33 36.82861 10.29214 3959 ft 240 kts 114°
2026-04-28 20:33 36.81992 10.30852 4927 ft 221 kts 146°
2026-04-28 20:34 36.80567 10.31417 5750 ft 219 kts 183°
2026-04-28 20:34 36.79110 10.30883 6540 ft 221 kts 209°
2026-04-28 20:34 36.77916 10.29642 7218 ft 229 kts 233°
2026-04-28 20:34 36.77295 10.27818 7975 ft 232 kts 263°
2026-04-28 20:35 36.77483 10.25853 8747 ft 236 kts 293°
2026-04-28 20:35 36.78495 10.24236 9498 ft 242 kts 326°
2026-04-28 20:35 36.80070 10.23514 10222 ft 245 kts 352°
2026-04-28 20:35 36.81764 10.23338 10874 ft 249 kts 354°
2026-04-28 20:36 36.83509 10.23199 11618 ft 251 kts 354°
2026-04-28 20:36 36.85255 10.23062 12376 ft 252 kts 352°
2026-04-28 20:36 36.87003 10.22685 13034 ft 258 kts 344°
2026-04-28 20:36 36.88834 10.22109 13267 ft 285 kts 342°
2026-04-28 20:37 36.90817 10.21451 13507 ft 312 kts 342°
2026-04-28 20:37 36.93011 10.20726 13743 ft 340 kts 343°
2026-04-28 20:37 36.95394 10.19951 13943 ft 368 kts 343°
2026-04-28 20:37 36.97941 10.19137 14443 ft 384 kts 343°
2026-04-28 20:38 37.00562 10.18312 15182 ft 393 kts 343°
2026-04-28 20:38 37.03230 10.17478 16034 ft 398 kts 343°
2026-04-28 20:38 37.05933 10.16636 16936 ft 402 kts 343°
2026-04-28 20:38 37.08668 10.15784 17793 ft 407 kts 344°
2026-04-28 20:39 37.11437 10.14920 18595 ft 413 kts 343°
2026-04-28 20:39 37.14246 10.14043 19329 ft 418 kts 343°
2026-04-28 20:39 37.17078 10.13158 20120 ft 421 kts 343°
2026-04-28 20:39 37.19932 10.12265 20894 ft 425 kts 343°
2026-04-28 20:40 37.22813 10.11362 21642 ft 429 kts 343°
2026-04-28 20:40 37.25729 10.10448 22394 ft 433 kts 343°
2026-04-28 20:40 37.28670 10.09525 23118 ft 437 kts 343°
2026-04-28 20:40 37.31632 10.08594 23851 ft 442 kts 343°
2026-04-28 20:41 37.34590 10.07665 24584 ft 445 kts 342°
2026-04-28 20:41 37.37605 10.06717 25351 ft 447 kts 342°
2026-04-28 20:41 37.40630 10.05765 26075 ft 451 kts 342°
2026-04-28 20:41 37.43685 10.04804 26742 ft 455 kts 342°
2026-04-28 20:42 37.46775 10.03832 27385 ft 459 kts 342°
2026-04-28 20:42 37.49893 10.02851 28010 ft 464 kts 341°
2026-04-28 20:42 37.53032 10.01846 28612 ft 467 kts 341°
2026-04-28 20:42 37.56204 10.00827 29179 ft 471 kts 341°
2026-04-28 20:43 37.59401 9.99811 29712 ft 475 kts 341°
2026-04-28 20:43 37.62627 9.98797 30196 ft 478 kts 341°
2026-04-28 20:43 37.65857 9.97786 30702 ft 479 kts 341°
2026-04-28 20:43 37.69094 9.96776 31319 ft 477 kts 341°
2026-04-28 20:44 37.72266 9.95778 31826 ft 475 kts 341°
2026-04-28 20:44 37.75504 9.94753 32300 ft 474 kts 340°
2026-04-28 20:44 37.78661 9.93745 32781 ft 472 kts 340°
2026-04-28 20:44 37.81842 9.92721 33224 ft 472 kts 340°
2026-04-28 20:45 37.85026 9.91694 33633 ft 471 kts 340°
2026-04-28 20:45 37.88198 9.90673 34063 ft 470 kts 340°
2026-04-28 20:45 37.91363 9.89657 34420 ft 469 kts 340°
2026-04-28 20:45 37.94536 9.88639 34736 ft 469 kts 340°
2026-04-28 20:46 37.97707 9.87622 35038 ft 469 kts 340°
2026-04-28 20:46 38.00875 9.86606 35342 ft 470 kts 340°
2026-04-28 20:46 38.04039 9.85590 35633 ft 470 kts 340°
2026-04-28 20:46 38.07210 9.84572 35920 ft 470 kts 340°
2026-04-28 20:47 38.10379 9.83555 36189 ft 470 kts 340°
2026-04-28 20:47 38.13555 9.82534 36460 ft 470 kts 340°
2026-04-28 20:47 38.16690 9.81528 36715 ft 470 kts 340°
2026-04-28 20:47 38.19859 9.80508 36970 ft 470 kts 340°
2026-04-28 20:48 38.23068 9.79594 37182 ft 474 kts 345°
2026-04-28 20:48 38.26341 9.78974 37429 ft 475 kts 347°
2026-04-28 20:48 38.29630 9.78441 37658 ft 476 kts 347°
2026-04-28 20:48 38.32921 9.77941 37894 ft 476 kts 348°
2026-04-28 20:49 38.36212 9.77445 38105 ft 476 kts 348°
2026-04-28 20:49 38.39504 9.76939 38311 ft 477 kts 348°
2026-04-28 20:49 38.42789 9.76422 38524 ft 476 kts 347°
2026-04-28 20:49 38.46083 9.75892 38720 ft 476 kts 347°
2026-04-28 20:50 38.49372 9.75355 38872 ft 476 kts 347°
2026-04-28 20:50 38.52659 9.74815 39009 ft 476 kts 347°
2026-04-28 20:50 38.55956 9.74271 39148 ft 476 kts 347°
2026-04-28 20:50 38.59195 9.73736 39305 ft 476 kts 347°
2026-04-28 20:51 38.62499 9.73192 39633 ft 470 kts 347°
2026-04-28 20:51 38.65690 9.72666 39902 ft 467 kts 347°
2026-04-28 20:51 38.68903 9.72134 39953 ft 470 kts 347°
2026-04-28 20:52 38.75397 9.71056 40030 ft 470 kts 347°